User: anonymous   Login
Location: White Ridge parking lot
(35.4984°N, 106.8413°W)
Time: 03:10:52
(UTC-06:00)
Language:

CUBEBUG 2 - Orbit

View from above orbital plane
View from above orbital plane
View from above satellite
View from above satellite

Ground track
Ground track

The orbit data is extracted from the following two-line orbital elements,

1 39440U 13066AA  19266.77027467 +.00000155 +00000-0 +28369-4 0  9993
2 39440 097.6082 259.5036 0081382 128.8977 231.9528 14.75887032313099
Epoch (UTC): 23 September 2019 18:29:11
Eccentricity: 0.0081382
inclination: 97.6082°
perigee height: 585 km
apogee height: 699 km
right ascension of ascending node: 259.5036°
argument of perigee: 128.8977°
revolutions per day: 14.75887032
mean anomaly at epoch: 231.9528°
orbit number at epoch: 31309

The dashed part of the orbit path shows where the satellite is in the earth's shadow,  

DLR